x

Gulf Of Maine - 78 Nm East Of Portsmouth, Nh (44005) Wave Buoy

12:50 - Fri 12th Feb 2016 All times are EST. -5 hours from GMT.

  • Sig Wave height 9.2ft
  • Peak Period 8s
  • Average Period 6s
  • Wind
    27mph, 36mph gusts
  • Sea Temp 42°f
  • Luft Temp 18°f
  • Sea Pressure 1011.6mb
  • Gulf Of Maine - 78 Nm East Of Portsmouth, Nh
  • Gulf Of Maine - 78 Nm East Of Portsmouth, Nh

More Historic Weather Station data

Upgrade to MSW Pro to gain access to the past 30 days of data for over 8000 Wavebouys and Weather Stations around the globe.

Join Pro

Comparision Forecast

View Surf forecast
   
Fr 02/12 12:50 9ft 8s 6s 27 36 mph 1011.6mb 42f 18f
Do 02/11 11:50 9.5ft 6s 6s 25 34 mph 1010.7mb 42f 20f
10:50 10ft 6s 6s 29 36 mph 1009.6mb 42f 23f
9:50 9ft 6s 6s 29 38 mph 1008.6mb 42f 23f
8:50 8ft 6s 5s 29 36 mph 1007.4mb 42f 25f
7:50  -   -   -  29 36 mph 1006.2mb 42f 25f
6:50 5.5ft 6s 5s 29 36 mph 1005mb 42f 26f
4:50  -   -   -  18 20 mph 1003.3mb 42f 27f
3:50 4.5ft 11s 6s 9 13 mph 1003mb 43f 28f
2:50 4.5ft 10s 6s 11 13 mph 1002.9mb 43f 25f
1:50 4.5ft 11s 6s 11 18 mph 1002.4mb 43f 29f
12:50 4.5ft 11s 6s 16 20 mph 1002.3mb 43f 29f
11:50 4.5ft 11s 5s 11 18 mph 1003mb 43f 29f
10:50 4.5ft 10s 5s 13 16 mph 1003.4mb 43f 29f
9:50 4.5ft 5s 5s 11 16 mph 1003.5mb 43f 29f
8:50 5ft 12s 5s 16 20 mph 1003.6mb 43f 30f
7:50 5.5ft 13s 5s 16 20 mph 1002.8mb 43f 30f
6:50 5.5ft 6s 5s 20 25 mph 1002.1mb 43f 31f
5:50 6ft 6s 5s 18 25 mph 1001.6mb 43f 33f
4:50 6ft 10s 6s 18 22 mph 1001.1mb 43f 34f
3:50 7ft 11s 6s 20 25 mph 1000.7mb 43f 35f
2:50 6.5ft 11s 6s 22 27 mph 1000.5mb 43f 35f
1:50 6ft 10s 6s 22 27 mph 1000.3mb 43f 36f
12:50 6ft 11s 6s 20 25 mph 1000.3mb 43f 37f
Mi 02/10 11:50 5ft 11s 5s 20 25 mph 1000.1mb 43f 38f
10:50 4.5ft 12s 5s 20 25 mph 1000.3mb 43f 38f
9:50 4.5ft 11s 6s 16 20 mph 1000.5mb 43f 38f
8:50 4.5ft 13s 7s 16 22 mph 1000.8mb 43f 36f
7:50 4.5ft 13s 7s 13 16 mph 1001.1mb 43f 35f
6:50 4.5ft 11s 8s 11 13 mph 1001.6mb 43f 35f
5:50 5ft 10s 9s 9 13 mph 1001.2mb 43f 36f
4:50 5ft 10s 9s 4 9 mph 1000.8mb 43f 36f
3:50 6ft 11s 9s 7 9 mph 1000.4mb 43f 36f
2:50 5.5ft 10s 9s 7 11 mph 1000.2mb 43f 35f
1:50 5ft 11s 9s 4 7 mph 1000mb 43f 34f
12:50 4.5ft 11s 9s 7 9 mph 1000.4mb 43f 34f
11:50 4.5ft 12s 9s 9 13 mph 1001.3mb 43f 34f
10:50 3.5ft 11s 9s 7 11 mph 1002.2mb 43f 33f
9:50 3.5ft 13s 8s 7 11 mph 1002.4mb 43f 33f
8:50 3.5ft 11s 7s 9 13 mph 1003mb 43f 32f
7:50 4ft 12s 8s 7 11 mph 1003mb 43f 31f
6:50 4.5ft 13s 8s 2 4 mph 1002.9mb 43f 30f
5:50 4.5ft 9s 7s 2 7 mph 1002.8mb 43f 29f
4:50 5ft 13s 8s 4 9 mph 1002.1mb 43f 29f
3:50 6ft 10s 8s 9 16 mph 1002mb 43f 28f
2:50 5.5ft 11s 7s 9 16 mph 1002.2mb 43f 28f
1:50 6ft 12s 8s 11 16 mph 1002.4mb 43f 28f
12:50 6.5ft 13s 8s 11 16 mph 1001.7mb 43f 28f
Di 02/09 11:50 6ft 11s 8s 13 18 mph 1001.4mb 43f 28f
10:50 7ft 12s 8s 13 22 mph 1001.3mb 43f 29f
9:50 6ft 13s 8s 9 13 mph 1001.8mb 43f 29f
8:50 6ft 13s 7s 7 13 mph 1001.3mb 43f 28f
7:50 6.5ft 13s 8s 11 16 mph 1001.5mb 43f 29f
6:50 7.5ft 13s 8s 7 11 mph 1002mb 43f 28f
5:50 7.5ft 13s 8s 9 11 mph 1002mb 43f 28f
4:50 9ft 11s 8s 9 13 mph 1001.7mb 43f 28f
3:50 10ft 13s 8s 11 16 mph 1001.2mb 43f 28f
2:50 11ft 14s 9s 13 18 mph 1000.9mb 43f 28f
1:50 12ft 14s 9s 16 22 mph 1000.8mb 43f 28f
12:50 11ft 12s 9s 13 20 mph 1002.2mb 43f 28f
11:50 13.5ft 12s 9s 11 16 mph 1003.1mb 43f 29f
10:50 12.5ft 12s 9s 11 16 mph 1004.1mb 43f 28f
9:50 13ft 13s 9s 11 16 mph 1004.6mb 43f 28f
8:50 11ft 14s 8s 9 16 mph 1005.4mb 43f 28f
7:50 12.5ft 15s 9s 18 22 mph 1003.2mb 43f 29f
6:50 12ft 15s 8s 11 16 mph 1005mb 43f 28f
5:50 12ft 16s 8s 11 20 mph 1005.4mb 43f 28f
4:50 13.5ft 15s 8s 18 25 mph 1005mb 43f 27f
3:50 14ft 14s 8s 20 25 mph 1005mb 43f 27f
2:50 15ft 11s 8s 25 31 mph 1004.8mb 43f 27f
1:50 15.5ft 11s 8s 29 34 mph 1005.1mb 43f 26f
12:50 16.5ft 11s 8s 29 38 mph 1005.2mb 43f 26f
Mo 02/08 11:50 15.5ft 11s 8s 31 38 mph 1005mb 43f 26f
10:50 16ft 11s 8s 31 40 mph 1004.4mb 43f 26f
9:50 16ft 11s 8s 31 38 mph 1004.8mb 43f 27f
8:50 15ft 11s 7s 31 38 mph 1004.5mb 44f 27f
7:50 17.5ft 10s 8s 22 29 mph 1004.3mb 44f 28f
6:50 16.5ft 11s 7s 36 43 mph 1003.2mb 44f 29f
5:50 20ft 10s 8s 38 47 mph 1002.4mb 44f 29f
4:50 20.5ft 10s 8s 38 49 mph 1001.9mb 44f 29f
3:50 18ft 8s 7s 38 47 mph 1002mb 44f 29f
2:50 19.5ft 10s 8s 38 47 mph 1003.4mb 43f 28f
1:50 16.5ft 10s 7s 38 49 mph 1004.3mb 43f 28f
12:50 17.5ft 10s 7s 38 45 mph 1005mb 43f 28f
11:50 15.5ft 9s 7s 36 43 mph 1006.9mb 43f 29f
10:50 16.5ft 9s 7s 36 43 mph 1006.9mb 43f 30f
9:50 17.5ft 9s 8s 36 45 mph 1008.3mb 43f 33f
8:50 16ft 9s 7s 36 45 mph 1008.6mb 43f 32f
7:50 16ft 8s 7s 34 43 mph 1009.6mb 44f 33f
6:50 15ft 8s 7s 38 45 mph 1011mb 43f 33f